Retour au catalogue

FENGYUN 1C DEB

ActifSSO
NORAD 31810·DEBRIS·🇨🇳 China

Lancé May 10, 1999 depuis Taiyuan Satellite Launch Center

Loading…

Prochains Passages (prochaines 24 heures)

TLE

VieillissantSource: Space-Track

Époque: Sep 5, 2026, 20:39 UTC

1 31810U 99025CGY 26248.86095056  .00001697  00000-0  36229-3 0  9997
2 31810  98.2594 262.9246 0210803  46.2382 315.6043 14.47212942682769

Suivez FENGYUN 1C DEB en temps réel avec AllMySat

Download on the App Store